This is the latest recevied weather packets stored in our database for station/object LU3HGB-WX. If no packets are shown the sender has not sent any weather packets the latest 10 day(s).
| Time | Temp. | Humidity | Pressure | Rain* | Wind** | Luminosity | Snow |
|---|---|---|---|---|---|---|---|
| 1778123863 | 15° C | 84% | 1008 hPa | 0 mm | - | 0 W/m² | - |
| 1778123559 | 15.56° C | 81% | 1008 hPa | 0 mm | - | 0 W/m² | - |
| 1778123259 | 16.11° C | 79% | 1008 hPa | 0.76 mm | - | 0 W/m² | - |
| 1778122960 | 17.22° C | 76% | 1008 hPa | 11.43 mm | - | 0 W/m² | - |
| 1778122660 | 17.78° C | 68% | 1008 hPa | 34.04 mm | - | 0 W/m² | - |
| 1778122360 | 17.78° C | 70% | 1009 hPa | 0 mm | - | 0 W/m² | - |
| 1778122060 | 17.78° C | 87% | 1008 hPa | 0 mm | - | 0 W/m² | - |
| 1778121760 | 18.33° C | 85% | 1008 hPa | 0 mm | - | 0 W/m² | - |
| 1778121460 | 18.33° C | 85% | 1007 hPa | 0 mm | - | 0 W/m² | - |
| 1778120870 | 17.78° C | 87% | 1007 hPa | 0 mm | - | 0 W/m² | - |
| 1778120559 | 17.78° C | 88% | 1007 hPa | 0 mm | - | 0 W/m² | - |
| 1778120260 | 17.78° C | 87% | 1007 hPa | 0 mm | - | 0 W/m² | - |
| 1778119960 | 18.33° C | 86% | 1007 hPa | 0 mm | - | 0 W/m² | - |
| 1778119659 | 18.33° C | 86% | 1007 hPa | 0 mm | - | 0 W/m² | - |
| 1778119360 | 18.33° C | 87% | 1008 hPa | 0 mm | - | 0 W/m² | - |
| 1778119061 | 18.33° C | 86% | 1008 hPa | 0 mm | - | 0 W/m² | - |
| 1778118760 | 18.33° C | 86% | 1008 hPa | 0 mm | - | 0 W/m² | - |
| 1778118460 | 18.33° C | 86% | 1008 hPa | 0 mm | - | 0 W/m² | - |
| 1778118160 | 17.78° C | 86% | 1008 hPa | 0 mm | - | 0 W/m² | - |
| 1778117860 | 17.78° C | 86% | 1008 hPa | 0 mm | - | 0 W/m² | - |
| 1778117560 | 17.78° C | 86% | 1008 hPa | 0 mm | - | 0 W/m² | - |
| 1778117260 | 17.78° C | 86% | 1008 hPa | 0 mm | - | 0 W/m² | - |
| 1778116960 | 17.78° C | 86% | 1008 hPa | 0 mm | - | 0 W/m² | - |
| 1778116660 | 17.78° C | 86% | 1008 hPa | 0 mm | - | 0 W/m² | - |
| 1778116360 | 17.78° C | 86% | 1008 hPa | 0 mm | - | 0 W/m² | - |
* Rain latest hour (hover to see other rain measurements)
** Current wind speed in m/s (hover to see current wind gust speed)